This is the latest recevied weather packets stored in our database for station/object W1TG-2. If no packets are shown the sender has not sent any weather packets the latest 10 day(s).
| Time | Temp. | Humidity | Pressure | Rain* | Wind** | Luminosity | Snow |
|---|---|---|---|---|---|---|---|
| 1787601963 | 27.78° C | 48% | 1011.4 hPa | 0 mm | - | - | - |
| 1787601603 | 27.78° C | 46% | 1011.3 hPa | 0 mm | - | - | - |
| 1787601244 | 28.33° C | 47% | 1011.3 hPa | 0 mm | - | - | - |
| 1787600884 | 27.78° C | 48% | 1011.2 hPa | 0 mm | - | - | - |
| 1787600523 | 27.78° C | 45% | 1011.2 hPa | 0 mm | - | - | - |
| 1787600164 | 27.78° C | 45% | 1011.2 hPa | 0 mm | - | - | - |
| 1787599804 | 27.78° C | 46% | 1011.1 hPa | 0 mm | - | - | - |
| 1787599444 | 27.78° C | 47% | 1011.2 hPa | 0 mm | - | - | - |
| 1787599083 | 28.33° C | 45% | 1011.2 hPa | 0 mm | - | - | - |
| 1787598724 | 28.33° C | 45% | 1011.2 hPa | 0 mm | - | - | - |
| 1787598364 | 28.33° C | 46% | 1011.2 hPa | 0 mm | - | - | - |
| 1787598003 | 28.33° C | 44% | 1011.2 hPa | 0 mm | - | - | - |
| 1787597644 | 28.89° C | 44% | 1011.4 hPa | 0 mm | - | - | - |
| 1787597283 | 28.33° C | 46% | 1011.6 hPa | 0 mm | - | - | - |
| 1787596924 | 28.33° C | 46% | 1011.5 hPa | 0 mm | - | - | - |
| 1787596564 | 27.78° C | 45% | 1011.6 hPa | 0 mm | - | - | - |
| 1787596203 | 28.33° C | 42% | 1011.6 hPa | 0 mm | - | - | - |
| 1787595843 | 28.89° C | 43% | 1011.6 hPa | 0 mm | - | - | - |
| 1787595484 | 28.89° C | 43% | 1011.7 hPa | 0 mm | - | - | - |
| 1787595123 | 28.33° C | 45% | 1011.7 hPa | 0 mm | - | - | - |
| 1787594763 | 28.89° C | 44% | 1011.8 hPa | 0 mm | - | - | - |
| 1787594404 | 28.89° C | 42% | 1011.7 hPa | 0.25 mm | - | - | - |
| 1787594044 | 28.33° C | 43% | 1011.7 hPa | 0.25 mm | - | - | - |
| 1787593683 | 28.33° C | 45% | 1011.8 hPa | 0.25 mm | - | - | - |
| 1787593324 | 28.33° C | 44% | 1011.9 hPa | 0.25 mm | - | - | - |
* Rain latest hour (hover to see other rain measurements)
** Current wind speed in m/s (hover to see current wind gust speed)